BADR-7 (ARABSAT-6B)

Last updated on Thu Nov 21 2024 00:02:43 GMT+0000 (Coordinated Universal Time)

1 41029U 15065B 24325.30044789 .00000146 00000+0 00000+0 0 9993 2 41029 0.0455 248.6678 0007210 353.1767 312.1490 1.00272595 33013
UTC large
Height (km)
Speed (km/s)
/
Latitude / Longitude
Inclination (degrees)
Orbital Period (minutes)
Azimuth
Elevation
Range (km)
Doppler Factor

Next 0 passes for location: London (51.5072 / 0.1276)

Sorry there are no passes over London.